Location: Bottenau
(48.5138°N, 8.0462°E)
Time: 05:48:00
(UTC+00:00)

CARTOSAT-1 - Pass Details

Date: 18 April 2021
Orbit: 615 x 619 km, 97.8° (Epoch: 09 May)

Event Time Altitude Azimuth Distance (km) Brightness Sun altitude
Exits shadow 21:04:22 52° 208° (SSW) 770 3.8 -22.5°
Maximum altitude 21:05:10 64° 258° (WSW) 688 3.8 -22.6°
Drops below altitude 10° 21:09:29 10° 341° (NNW) 1,994 7.1 -23.1°
Sets 21:11:42 0° 345° (NNW) 2,904 8.2 -23.3°
